Beverly, MA

10:35 PM EDT on October 20, 2017 (GMT -0400)
Beverly Municipal

Weather History for KBVY - June, 2012

Change the Weather History Date:

Saturday, June 9, 2012

  Actual Average Record
Temperature  
Mean Temperature 66 °F -  
Max Temperature 78 °F 69 °F 95 °F (1984)
Min Temperature 54 °F 50 °F 46 °F (1980)
Cooling Degree Days 2    
Growing Degree Days 16 (Base 50)    
Moisture  
Dew Point 50 °F    
Average Humidity 62    
Maximum Humidity 90    
Minimum Humidity 34    
Precipitation  
Precipitation 0.01 in - - ()
Sea Level Pressure  
Sea Level Pressure 29.84 in    
Wind  
Wind Speed 7 mph (WNW)    
Max Wind Speed 16 mph    
Max Gust Speed 23 mph    
Visibility 10 miles    
Events Rain    
Averages and records for this station are not official NWS values.
T = Trace of Precipitation, MM = Missing Value Source: NWS Daily Summary

Daily Weather History Graph

Daily Weather History Graph

Search for Another Location

Airport or City:

Trip Planner

Search our weather history database for the weather conditions in past years. The results will help you decide how hot, cold, wet, or windy it might be!

Date:

Astronomy

Jun. 09, 2012 Rise Set
Actual Time 5:05 AM EDT 8:20 PM EDT
Civil Twilight 4:31 AM EDT 8:55 PM EDT
Nautical Twilight 3:46 AM EDT 9:40 PM EDT
Astronomical Twilight 2:52 AM EDT 10:34 PM EDT
Moon No Moon Rise 10:54 AM EDT (6/9)
Length of Visible Light 16h 23m
Length of Day
15h 14m
Waning Gibbous, 68% of the Moon is Illuminated
Jun 9
Waning Gibbous
Jun 11
Last Quarter
Jun 19
New
Jun 26
First Quarter
Jul 3
Full

Hourly Weather History & Observations

Time (EDT) Temp. Dew Point Humidity Pressure Visibility Wind Dir Wind Speed Gust Speed Precip Events Conditions
12:53 AM 60.1 °F 57.0 °F 90% 29.77 in 10.0 mi NW 3.5 mph - 0.00 in Rain Light Rain
1:53 AM 60.1 °F 54.0 °F 80% 29.76 in 10.0 mi West 5.8 mph - 0.01 in Rain Light Rain
2:53 AM 59.0 °F 53.6 °F 82% 29.77 in 10.0 mi West 5.8 mph - N/A   Clear
3:53 AM 57.0 °F 52.0 °F 83% 29.77 in 10.0 mi West 6.9 mph - N/A   Clear
4:53 AM 55.0 °F 52.0 °F 89% 29.79 in 10.0 mi WNW 4.6 mph - N/A   Clear
5:53 AM 55.9 °F 51.1 °F 84% 29.82 in 10.0 mi WNW 4.6 mph - N/A   Clear
6:53 AM 60.1 °F 52.0 °F 75% 29.85 in 10.0 mi NW 6.9 mph - N/A   Clear
7:53 AM 64.0 °F 52.0 °F 65% 29.85 in 10.0 mi WNW 9.2 mph - N/A   Clear
8:53 AM 66.9 °F 52.0 °F 59% 29.86 in 10.0 mi NW 11.5 mph - N/A   Clear
9:53 AM 70.0 °F 46.9 °F 44% 29.86 in 10.0 mi NW 13.8 mph 20.7 mph N/A   Clear
10:53 AM 71.1 °F 46.0 °F 41% 29.87 in 10.0 mi WNW 12.7 mph 19.6 mph N/A   Clear
11:53 AM 73.0 °F 46.9 °F 39% 29.86 in 10.0 mi NW 16.1 mph 23.0 mph N/A   Clear
12:53 PM 75.0 °F 48.0 °F 38% 29.85 in 10.0 mi NW 10.4 mph 20.7 mph N/A   Clear
1:53 PM 77.0 °F 46.9 °F 34% 29.83 in 10.0 mi West 13.8 mph 20.7 mph N/A   Scattered Clouds
2:53 PM 75.9 °F 46.0 °F 35% 29.83 in 10.0 mi West 11.5 mph 17.3 mph N/A   Clear
3:53 PM 77.0 °F 46.9 °F 34% 29.82 in 10.0 mi NW 8.1 mph - N/A   Clear
4:53 PM 78.1 °F 48.9 °F 36% 29.82 in 10.0 mi NW 4.6 mph - N/A   Scattered Clouds
5:53 PM 72.0 °F 51.1 °F 48% 29.83 in 10.0 mi SE 9.2 mph - N/A   Mostly Cloudy
6:53 PM 71.1 °F 51.1 °F 49% 29.84 in 10.0 mi South 3.5 mph - N/A   Mostly Cloudy
7:53 PM 66.0 °F 51.1 °F 59% 29.85 in 10.0 mi SE 4.6 mph - N/A   Scattered Clouds
8:53 PM 64.0 °F 51.1 °F 63% 29.87 in 10.0 mi Calm Calm - N/A   Clear
9:53 PM 57.9 °F 52.0 °F 81% 29.90 in 10.0 mi Calm Calm - N/A   Clear
10:53 PM 55.9 °F 52.0 °F 87% 29.91 in 10.0 mi Calm Calm - N/A   Clear
11:53 PM 54.0 °F 51.1 °F 90% 29.92 in 10.0 mi Calm Calm - N/A   Clear